RH
91 96 93 93 92 92 92 95 97 94 74 64 66 64 63 64 64 68 75 86 80 80 77 87 83 87 91 91 82 79 71 70 84 84 86 85 87 90 89 81 77 78 75
100 99 92 86 91 91 90 87 90 89 84 78 73 68 66 64 63 64 68 73 78 85 85 92 80 79 81 89 89 79 73 70 81 81 85 88 88 89 86 84 82 86 88
99 100 100 94 88 88 90 90 90 90 89 84 82 79 72 64 58 55 57 59 62 69 88 86 82 80 76 81 83 82 75 74 76 76 81 79 86 91 89 88 82 88 71
100 100 100 100 99 91 83 86 88 90 88 87 88 92 86 80 73 69 67 65 62 76 92 87 83 82 80 76 76 78 77 76 72 74 80 75 76 89 88 89 86 93 82
100 100 100 100 100 99 92 84 84 80 85 85 83 84 88 90 83 80 76 76 74 77 89 82 80 83 82 80 77 76 76 77 74 77 71 77 73 85 92 86 92 82 87
94 97 99 100 100 100 95 92 90 84 83 82 81 80 78 78 85 81 75 73 71 74 79 84 85 83 81 81 79 78 74 75 76 79 73 79 84 80 93 86 91 77 84
86 90 92 95 99 100 100 99 93 89 90 83 80 80 78 76 76 83 83 79 78 74 72 77 85 82 85 81 80 78 77 77 81 73 76 81 84 84 94 87 84 83 84
72 82 84 86 89 92 98 100 100 96 90 95 87 82 83 82 79 80 84 79 79 77 75 74 76 83 82 80 80 80 81 80 82 75 77 81 84 89 96 94 83 84 87
62 67 73 80 84 86 87 92 100 100 97 93 92 86 85 81 80 76 81 82 81 76 76 77 77 78 79 81 77 75 77 84 84 73 78 79 88 82 89 88 82 75 81
59 64 59 67 76 82 86 88 93 99 98 92 92 89 86 81 82 79 83 86 82 82 80 80 78 82 80 82 80 77 78 82 90 82 82 79 87 84 85 86 81 74 82
56 65 65 59 63 73 80 85 87 92 99 99 97 94 88 91 95 95 91 84 83 83 82 82 85 84 82 86 82 78 78 87 88 88 82 87 88 82 85 84 81 77 85
60 63 72 72 68 65 71 79 84 89 95 99 100 99 97 96 95 82 82 82 85 88 84 76 78 84 83 89 95 78 81 91 94 97 91 91 85 82 86 80 82 80 86
63 65 70 73 75 73 64 68 77 83 91 96 99 99 100 93 89 86 93 92 95 97 96 92 83 84 87 92 92 86 88 94 100 97 96 80 83 81 80 82 74 82 96
60 64 67 70 72 77 78 68 72 78 83 91 98 99 99 100 92 89 78 85 89 95 99 97 87 85 94 97 97 90 89 97 97 99 81 80 82 82 75 77 87 92 99
59 63 67 69 72 76 79 85 74 72 82 84 93 100 100 99 99 88 85 94 87 89 94 99 99 92 93 95 99 99 92 95 99 100 92 74 75 81 85 81 99 98 99
55 59 65 70 73 77 78 83 84 83 77 92 92 99 100 100 99 99 90 92 91 90 90 98 98 97 100 100 99 99 98 98 100 99 99 81 73 80 82 79 80 81 99
52 56 61 66 74 78 79 81 79 83 87 95 90 92 99 100 99 99 96 99 86 90 91 99 95 97 96 99 100 97 92 91 88 96 100 99 81 79 76 75 60 99 99
50 52 60 65 71 78 80 79 78 83 89 89 94 91 99 99 100 98 100 100 97 79 88 95 100 98 100 100 100 99 100 95 92 95 100 98 100 87 70 64 60 90 95
53 54 57 63 70 76 80 77 78 79 82 84 96 84 96 98 100 100 99 99 100 79 80 95 100 100 99 100 100 99 100 99 100 99 99 99 100 95 71 76 75 85 95
51 54 57 64 71 76 76 76 76 75 76 81 84 94 78 87 97 100 100 99 100 76 78 83 99 100 100 100 100 99 100 99 100 100 100 100 100 100 94 82 100 100 98
47 54 59 66 74 79 76 80 82 79 74 76 84 86 90 87 83 95 100 99 100 98 77 80 99 100 100 100 99 99 100 99 100 100 100 100 100 100 100 100 100 100 100
45 55 60 71 78 85 87 88 87 84 76 76 84 86 95 90 88 89 96 99 100 100 100 87 99 99 100 99 99 95 99 96 98 99 100 100 100 100 99 100 100 100 100
51 62 66 75 87 88 98 93 90 81 78 76 84 88 93 91 92 84 92 97 99 99 100 97 99 100 99 100 97 89 99 97 97 98 100 100 98 99 100 100 100 100 100
60 64 72 79 85 91 98 100 100 98 95 92 91 88 89 95 87 97 99 98 97 100 100 99 99 99 100 99 100 97 88 83 86 99 97 99 99 100 100 100 100 100 95
64 64 70 78 79 86 97 100 100 100 99 98 95 94 89 92 87 99 94 98 94 98 100 100 100 100 100 98 97 98 99 87 85 88 99 99 99 100 100 100 99 100 99
54 61 68 69 74 79 90 98 100 100 100 100 100 99 93 95 89 94 99 91 93 96 100 100 100 100 99 100 100 96 91 87 93 86 93 100 99 99 100 100 99 100 100
Wind_Speed
39 28 13 7 8 10 8 8 8 8 8 9 9 9 8 6 6 6 5 5 5 4 4 4 6 7 6 6 7 6 7 7 8 8 9 9 13 14 15 16 16 14 15
44 29 11 7 5 5 7 8 8 8 8 8 8 8 8 8 7 6 6 5 5 5 4 4 6 6 5 6 7 8 8 8 8 9 9 9 11 14 16 15 14 15 15
43 34 27 11 6 4 4 4 6 7 7 8 8 7 7 7 7 6 6 5 5 5 4 4 5 5 5 5 5 6 9 9 10 8 9 8 9 13 15 16 15 16 19
38 32 27 23 13 10 5 4 4 5 7 6 6 6 6 6 6 6 6 6 5 5 4 5 4 4 4 4 6 7 8 9 10 10 8 8 10 13 15 15 16 16 22
39 35 31 30 11 7 7 9 5 5 7 7 7 7 6 7 7 7 7 7 7 7 6 6 5 6 5 6 6 7 8 9 9 10 8 10 11 13 16 17 16 19 20
39 38 34 35 21 7 5 4 7 11 10 9 9 9 8 8 8 8 8 8 8 8 9 7 7 7 8 7 7 8 9 9 9 9 10 12 12 15 17 17 18 21 18
38 38 36 36 28 15 8 7 6 7 12 12 10 10 9 9 8 8 9 11 9 9 10 10 8 9 8 8 7 7 10 11 9 10 10 12 13 17 18 19 19 22 21
34 36 37 36 32 28 19 13 9 8 10 15 15 14 12 10 9 9 10 10 11 11 11 10 12 11 10 10 9 10 10 11 12 11 12 13 15 18 18 20 21 22 21
31 37 39 37 34 31 26 25 14 12 12 13 17 16 14 12 10 10 11 11 11 11 10 11 12 11 11 11 11 10 12 13 10 11 13 13 17 19 20 21 23 22 22
31 38 42 39 36 34 31 30 22 17 12 13 14 18 16 15 13 11 11 10 9 9 9 10 11 10 10 11 11 10 11 12 11 11 13 14 17 19 20 21 23 24 25
35 39 45 43 40 37 33 31 30 24 17 13 12 16 16 14 11 9 10 11 10 10 9 9 9 9 10 11 11 11 10 9 10 11 13 16 17 19 20 22 24 26 26
40 39 40 44 43 40 37 34 31 29 25 20 15 15 13 12 10 10 12 13 13 12 12 11 9 10 10 9 9 12 10 10 10 11 12 17 17 19 19 21 26 27 29
33 35 37 37 40 40 41 38 35 33 30 25 18 14 15 14 11 9 10 13 12 12 11 10 9 8 10 10 10 10 10 11 11 12 12 16 17 19 19 22 28 31 36
34 34 35 36 35 36 40 39 36 35 32 29 25 20 16 21 15 13 14 17 18 15 12 11 11 11 11 12 11 10 11 10 11 12 18 18 19 20 21 21 28 36 43
32 34 35 34 34 34 33 37 36 34 33 32 29 23 19 17 20 18 14 15 20 19 18 16 12 12 12 12 11 11 11 11 12 10 17 17 21 20 20 20 20 44 49
31 32 33 33 33 33 33 31 31 31 32 29 29 27 22 20 20 23 17 17 19 20 18 17 17 16 12 11 11 12 12 11 13 15 15 16 19 21 22 20 22 34 45
27 30 32 31 32 33 31 32 28 27 27 27 30 30 25 21 17 25 24 17 22 18 16 14 17 18 17 15 13 14 15 15 16 16 16 16 16 22 25 17 7 24 38
30 31 29 30 31 32 31 29 28 26 25 25 28 29 28 23 18 17 26 20 21 19 16 16 15 20 21 20 18 15 15 15 16 17 15 15 16 19 21 21 28 14 25
25 29 31 31 32 33 30 29 28 26 25 26 25 30 29 28 24 21 16 24 18 20 19 16 17 20 22 21 17 14 12 13 14 16 16 19 23 24 26 25 30 30 30
24 26 27 28 31 32 29 29 28 26 28 23 26 26 33 29 28 25 20 16 17 23 21 20 21 20 22 21 13 9 8 9 10 13 17 22 25 30 28 31 34 36 37
24 27 28 30 30 31 31 33 33 33 31 27 24 29 31 29 32 28 25 19 17 25 24 23 24 24 18 21 17 9 6 4 5 10 14 19 29 32 34 41 39 41 40
24 26 27 28 28 28 27 27 27 29 22 28 24 29 27 33 31 28 25 27 20 22 24 25 27 21 16 28 7 7 2 2 5 6 10 15 23 26 39 41 45 42 42
22 24 26 27 26 25 27 26 28 25 24 24 30 28 30 34 31 30 28 25 28 19 26 30 32 30 19 29 19 7 3 2 4 7 8 10 19 23 41 45 46 44 42
21 21 23 25 25 24 26 26 26 26 30 30 30 29 32 29 34 28 25 27 25 24 24 33 34 33 23 23 22 19 8 11 3 3 7 8 17 16 39 44 46 44 44
19 20 21 23 24 24 25 24 24 25 26 30 30 33 29 29 33 28 27 28 28 23 21 31 35 35 32 25 27 18 11 12 11 5 4 1 17 16 41 44 44 43 41
19 20 22 23 24 24 25 25 24 25 28 31 31 32 32 32 38 34 30 32 31 27 25 15 38 39 36 28 32 28 22 15 12 13 6 4 6 12 37 40 40 38 38
Wind_Direction
336 338 283 225 189 173 175 176 169 179 183 182 185 188 184 177 186 191 190 193 183 170 173 191 181 164 166 168 183 172 166 149 133 132 125 128 138 137 137 130 120 129 136
349 341 302 265 242 206 185 186 184 188 185 188 192 196 197 197 199 208 207 205 198 190 199 221 181 174 175 166 181 184 174 167 147 139 135 144 146 145 143 129 134 134 132
359 22 28 323 294 259 234 226 213 210 205 195 196 196 198 199 204 214 228 230 215 200 212 209 187 188 203 173 184 186 181 182 181 159 150 150 156 156 154 145 152 138 137
353 13 22 29 9 333 287 257 248 260 238 233 218 213 214 214 214 221 231 237 224 199 215 228 202 203 208 191 187 185 180 190 194 194 172 172 171 168 163 158 146 143 142
4 16 19 14 25 11 355 317 266 264 259 250 244 242 229 234 238 236 237 239 235 217 222 234 240 226 226 219 195 192 189 192 190 183 190 188 178 181 174 166 155 150 140
8 17 18 14 17 13 4 341 320 289 257 247 236 241 238 237 241 246 254 252 243 240 236 235 237 241 235 227 215 209 208 209 203 200 203 201 186 190 180 177 168 159 163
5 13 15 16 18 19 7 344 313 291 295 270 248 251 241 239 240 244 251 260 259 254 248 240 249 244 241 232 220 222 225 224 212 219 214 210 198 195 184 182 178 168 167
2 7 12 13 14 13 10 353 332 305 295 296 260 255 250 246 237 247 254 267 269 263 262 257 248 245 247 236 222 229 234 228 221 222 222 216 207 196 189 188 184 175 169
5 9 11 11 9 7 5 0 352 334 309 292 277 260 253 248 246 253 260 261 266 269 269 263 255 247 246 238 233 233 238 235 223 227 226 220 215 199 197 193 187 184 174
6 7 10 8 6 4 0 356 355 346 328 308 294 275 261 255 247 245 256 274 269 266 262 255 256 248 244 242 242 236 238 237 223 226 228 219 216 200 203 197 191 187 177
7 6 3 6 4 2 358 355 352 347 345 336 330 300 262 253 249 245 255 260 269 266 262 257 254 248 242 243 240 235 235 229 226 226 229 229 214 205 209 202 196 189 178
0 1 0 358 360 358 357 354 352 348 343 340 343 346 275 252 250 262 271 270 268 266 263 259 252 242 237 232 238 235 227 233 229 234 233 235 216 215 218 210 199 194 180
357 358 359 357 355 355 354 352 350 348 342 336 333 330 327 269 268 277 281 277 268 267 261 264 260 244 232 231 231 232 230 231 234 238 237 235 223 223 224 220 206 197 182
358 358 357 357 355 352 351 349 346 346 343 335 329 325 323 315 286 280 269 270 268 259 259 257 253 245 239 237 232 236 237 236 239 247 245 242 227 228 229 230 213 195 174
360 356 356 355 354 351 349 347 344 341 339 335 331 323 320 316 298 276 271 266 265 259 255 256 253 247 241 241 240 238 239 242 249 250 253 246 232 229 229 231 209 193 173
355 355 353 354 353 351 348 345 339 338 336 331 332 321 321 320 307 290 271 263 261 259 253 251 251 250 245 242 239 236 237 247 255 248 256 253 234 227 226 224 249 296 160
357 352 354 352 350 351 348 344 341 336 331 334 325 324 321 325 314 305 269 257 256 253 252 250 247 245 246 240 237 234 245 248 257 255 253 254 240 227 230 230 218 115 143
354 355 354 352 350 349 347 345 341 337 336 331 327 330 326 316 318 298 280 251 243 245 256 254 242 240 237 241 235 232 232 246 251 250 247 236 198 191 194 200 177 158 124
355 353 353 354 353 349 346 344 342 339 336 332 331 333 325 318 315 311 292 261 240 242 252 251 235 233 223 228 222 226 224 236 233 238 230 219 207 183 183 190 171 167 159
356 356 355 354 352 351 348 344 341 339 337 336 332 333 331 326 318 314 305 287 254 238 241 241 236 225 216 204 189 200 212 216 212 216 214 207 208 202 189 178 161 159 158
357 356 356 353 353 354 351 348 344 337 335 334 334 332 334 330 325 315 306 295 286 245 235 234 225 218 204 194 161 106 77 158 179 182 200 195 193 195 188 168 164 158 154
353 353 353 352 350 351 348 343 337 331 325 328 328 331 330 331 331 320 313 295 291 273 238 226 223 199 195 192 168 126 150 89 63 108 164 167 173 171 171 160 157 153 151
352 350 348 347 347 347 346 342 340 338 332 333 333 332 330 331 332 328 316 308 295 299 235 232 223 215 189 197 192 167 156 189 119 48 86 126 146 138 149 149 147 148 148
347 345 343 344 345 344 345 344 343 338 331 330 327 325 326 328 329 327 325 310 300 297 251 234 231 219 205 193 208 220 189 153 157 148 56 89 121 124 130 135 140 142 142
343 343 341 340 343 343 343 343 339 333 328 325 326 325 328 326 332 329 330 322 308 300 304 234 224 217 207 204 202 194 204 172 177 163 117 135 99 92 118 132 136 139 144
342 343 342 340 340 342 341 339 336 332 330 328 328 328 328 327 328 330 329 327 317 306 290 279 230 220 213 213 206 202 183 171 166 157 129 116 97 71 116 122 132 138 141